"Sample Date","Sample Time","Sample Value","Units","Flow Rate","Laser Status","Micron Size 0","Counts/Channel 0","Micron Size 1","Counts/Channel 1","Micron Size 2","Counts/Channel 2","Micron Size 3","Counts/Channel 3","Micron Size 4","Counts/Channel 4","Micron Size 5","Counts/Channel 5","Micron Size 6","Counts/Channel 6","Micron Size 7","Counts/Channel 7","Micron Size 8","Counts/Channel 8","Micron Size 9","Counts/Channel 9","Micron Size 10","Counts/Channel 10","Micron Size 11","Counts/Channel 11","Micron Size 12","Counts/Channel 12","Micron Size 13","Counts/Channel 13","Micron Size 14","Counts/Channel 14","Micron Size 15","Counts/Channel 15","Micron Size 16","Counts/Channel 16","Micron Size 17","Counts/Channel 17","Micron Size 18","Counts/Channel 18","Micron Size 19","Counts/Channel 19","Micron Size 20","Counts/Channel 20","Micron Size 21","Counts/Channel 21","Micron Size 22","Counts/Channel 22","Micron Size 23","Counts/Channel 23","Micron Size 24","Counts/Channel 24","Micron Size 25","Counts/Channel 25","Micron Size 26","Counts/Channel 26","Micron Size 27","Counts/Channel 27","Micron Size 28","Counts/Channel 28","Micron Size 29","Counts/Channel 29","Micron Size 30","Counts/Channel 30","Micron Size 31","Counts/Channel 31"
"05/02/07","19:00:03",72697.000,"cc",28256.684,1,0.100,62528.000,0.200,9065.000,0.300,982.000,0.500,92.000,1.000,30.000,5.000,0
"05/02/07","19:00:09",70488.000,"cc",28307.065,1,0.100,60589.000,0.200,8889.000,0.300,897.000,0.500,92.000,1.000,21.000,5.000,0
"05/02/07","19:00:15",69950.000,"cc",28324.295,1,0.100,59964.000,0.200,8994.000,0.300,884.000,0.500,89.000,1.000,19.000,5.000,0
"05/02/07","19:00:21",74724.000,"cc",28298.875,1,0.100,64215.000,0.200,9273.000,0.300,1071.000,0.500,139.000,1.000,26.000,5.000,0
"05/02/07","19:00:27",70783.000,"cc",28305.674,1,0.100,60668.000,0.200,9010.000,0.300,963.000,0.500,116.000,1.000,26.000,5.000,0
"05/02/07","19:00:33",69510.000,"cc",28318.443,1,0.100,59703.000,0.200,8694.000,0.300,966.000,0.500,121.000,1.000,26.000,5.000,0
"05/02/07","19:00:39",69572.000,"cc",28314.305,1,0.100,59612.000,0.200,8857.000,0.300,972.000,0.500,110.000,1.000,21.000,5.000,0
"05/02/07","19:00:45",70040.000,"cc",28380.219,1,0.100,60272.000,0.200,8644.000,0.300,1001.000,0.500,112.000,1.000,11.000,5.000,0
"05/02/07","19:00:51",67635.000,"cc",28331.365,1,0.100,58147.000,0.200,8393.000,0.300,960.000,0.500,114.000,1.000,21.000,5.000,0
"05/02/07","19:00:57",68248.000,"cc",28296.695,1,0.100,58627.000,0.200,8500.000,0.300,967.000,0.500,127.000,1.000,27.000,5.000,0
"05/02/07","19:01:03",67438.000,"cc",28277.887,1,0.100,57966.000,0.200,8366.000,0.300,975.000,0.500,108.000,1.000,23.000,5.000,0
"05/02/07","19:01:09",70411.000,"cc",28353.955,1,0.100,60860.000,0.200,8372.000,0.300,1026.000,0.500,116.000,1.000,37.000,5.000,0
"05/02/07","19:01:15",68501.000,"cc",28291.492,1,0.100,58940.000,0.200,8474.000,0.300,933.000,0.500,133.000,1.000,21.000,5.000,0
"05/02/07","19:01:21",71317.000,"cc",28319.518,1,0.100,61488.000,0.200,8628.000,0.300,1041.000,0.500,128.000,1.000,32.000,5.000,0
"05/02/07","19:01:27",75214.000,"cc",28320.791,1,0.100,64856.000,0.200,9004.000,0.300,1184.000,0.500,135.000,1.000,35.000,5.000,0
"05/02/07","19:01:33",75722.000,"cc",28291.275,1,0.100,65411.000,0.200,9000.000,0.300,1139.000,0.500,141.000,1.000,31.000,5.000,0
"05/02/07","19:01:39",75348.000,"cc",28350.586,1,0.100,65006.000,0.200,9047.000,0.300,1144.000,0.500,115.000,1.000,36.000,5.000,0
"05/02/07","19:01:45",74674.000,"cc",28286.727,1,0.100,64633.000,0.200,8755.000,0.300,1124.000,0.500,141.000,1.000,21.000,5.000,0
"05/02/07","19:01:51",72946.000,"cc",28335.902,1,0.100,63070.000,0.200,8645.000,0.300,1061.000,0.500,126.000,1.000,44.000,5.000,0
"05/02/07","19:01:57",73139.000,"cc",28354.867,1,0.100,62849.000,0.200,8949.000,0.300,1188.000,0.500,115.000,1.000,38.000,5.000,0
"05/02/07","19:02:03",73089.000,"cc",28292.330,1,0.100,62964.000,0.200,8853.000,0.300,1108.000,0.500,134.000,1.000,30.000,5.000,0
"05/02/07","19:02:09",71932.000,"cc",28307.650,1,0.100,61795.000,0.200,8911.000,0.300,1064.000,0.500,126.000,1.000,36.000,5.000,0
"05/02/07","19:02:15",69888.000,"cc",28355.039,1,0.100,60281.000,0.200,8393.000,0.300,1051.000,0.500,130.000,1.000,33.000,5.000,0
"05/02/07","19:02:21",68518.000,"cc",28357.426,1,0.100,58953.000,0.200,8395.000,0.300,1035.000,0.500,105.000,1.000,30.000,5.000,0
"05/02/07","19:02:27",67968.000,"cc",28283.600,1,0.100,58559.000,0.200,8248.000,0.300,1022.000,0.500,112.000,1.000,27.000,5.000,0
"05/02/07","19:02:33",66986.000,"cc",28311.777,1,0.100,57549.000,0.200,8301.000,0.300,987.000,0.500,122.000,1.000,27.000,5.000,0
"05/02/07","19:02:39",64777.000,"cc",28341.197,1,0.100,55633.000,0.200,8077.000,0.300,913.000,0.500,120.000,1.000,34.000,5.000,0
"05/02/07","19:02:45",64072.000,"cc",28307.324,1,0.100,55226.000,0.200,7825.000,0.300,891.000,0.500,106.000,1.000,24.000,5.000,0
"05/02/07","19:02:51",62964.000,"cc",28320.846,1,0.100,54314.000,0.200,7665.000,0.300,839.000,0.500,113.000,1.000,33.000,5.000,0
"05/02/07","19:02:57",62179.000,"cc",28296.436,1,0.100,53577.000,0.200,7623.000,0.300,856.000,0.500,94.000,1.000,29.000,5.000,0
"05/02/07","19:03:03",61171.000,"cc",28329.066,1,0.100,52703.000,0.200,7545.000,0.300,788.000,0.500,108.000,1.000,27.000,5.000,0
"05/02/07","19:03:09",60511.000,"cc",28304.793,1,0.100,52189.000,0.200,7348.000,0.300,815.000,0.500,125.000,1.000,34.000,5.000,0
"05/02/07","19:03:15",60740.000,"cc",28249.272,1,0.100,52199.000,0.200,7629.000,0.300,797.000,0.500,98.000,1.000,17.000,5.000,0
"05/02/07","19:03:21",60968.000,"cc",28368.666,1,0.100,52480.000,0.200,7525.000,0.300,812.000,0.500,120.000,1.000,31.000,5.000,0
"05/02/07","19:03:27",60241.000,"cc",28355.367,1,0.100,52011.000,0.200,7328.000,0.300,783.000,0.500,110.000,1.000,9.000,5.000,0
"05/02/07","19:03:33",58960.000,"cc",28328.246,1,0.100,50711.000,0.200,7307.000,0.300,827.000,0.500,98.000,1.000,17.000,5.000,0
"05/02/07","19:03:39",57874.000,"cc",28249.363,1,0.100,49823.000,0.200,7167.000,0.300,749.000,0.500,96.000,1.000,39.000,5.000,0
"05/02/07","19:03:45",59354.000,"cc",28342.432,1,0.100,51130.000,0.200,7321.000,0.300,773.000,0.500,101.000,1.000,29.000,5.000,0
"05/02/07","19:03:51",57342.000,"cc",28343.188,1,0.100,49363.000,0.200,7081.000,0.300,742.000,0.500,126.000,1.000,30.000,5.000,0
"05/02/07","19:03:57",57477.000,"cc",28379.922,1,0.100,49463.000,0.200,7103.000,0.300,759.000,0.500,127.000,1.000,25.000,5.000,0
"05/02/07","19:04:03",57960.000,"cc",28299.496,1,0.100,49791.000,0.200,7316.000,0.300,723.000,0.500,102.000,1.000,28.000,5.000,0
"05/02/07","19:04:09",56867.000,"cc",28302.910,1,0.100,48573.000,0.200,7393.000,0.300,781.000,0.500,97.000,1.000,23.000,5.000,0
"05/02/07","19:04:15",55804.000,"cc",28307.057,1,0.100,47768.000,0.200,7186.000,0.300,724.000,0.500,103.000,1.000,23.000,5.000,0
"05/02/07","19:04:21",53963.000,"cc",28291.430,1,0.100,46113.000,0.200,7035.000,0.300,674.000,0.500,108.000,1.000,33.000,5.000,0
"05/02/07","19:04:27",53276.000,"cc",28311.084,1,0.100,45701.000,0.200,6784.000,0.300,646.000,0.500,120.000,1.000,25.000,5.000,0
"05/02/07","19:04:33",51848.000,"cc",28333.699,1,0.100,44466.000,0.200,6574.000,0.300,679.000,0.500,92.000,1.000,37.000,5.000,0
"05/02/07","19:04:39",51190.000,"cc",28348.695,1,0.100,43792.000,0.200,6593.000,0.300,663.000,0.500,114.000,1.000,28.000,5.000,0
"05/02/07","19:04:45",51142.000,"cc",28344.561,1,0.100,43924.000,0.200,6460.000,0.300,649.000,0.500,79.000,1.000,30.000,5.000,0
"05/02/07","19:04:51",50027.000,"cc",28294.027,1,0.100,42877.000,0.200,6380.000,0.300,635.000,0.500,110.000,1.000,25.000,5.000,0
"05/02/07","19:04:57",48940.000,"cc",28318.178,1,0.100,41920.000,0.200,6279.000,0.300,610.000,0.500,117.000,1.000,14.000,5.000,0
"05/02/07","19:05:03",47703.000,"cc",28321.813,1,0.100,40959.000,0.200,6035.000,0.300,596.000,0.500,93.000,1.000,20.000,5.000,0
"05/02/07","19:05:09",46634.000,"cc",28301.598,1,0.100,39976.000,0.200,5972.000,0.300,562.000,0.500,97.000,1.000,27.000,5.000,0
"05/02/07","19:05:15",46404.000,"cc",28269.518,1,0.100,39654.000,0.200,6058.000,0.300,590.000,0.500,73.000,1.000,29.000,5.000,0
"05/02/07","19:05:21",45588.000,"cc",28305.729,1,0.100,39035.000,0.200,5906.000,0.300,539.000,0.500,90.000,1.000,18.000,5.000,0
"05/02/07","19:05:27",45131.000,"cc",28270.934,1,0.100,38706.000,0.200,5737.000,0.300,547.000,0.500,105.000,1.000,36.000,5.000,0
"05/02/07","19:05:33",45046.000,"cc",28364.740,1,0.100,38575.000,0.200,5798.000,0.300,549.000,0.500,101.000,1.000,23.000,5.000,0
"05/02/07","19:05:39",44013.000,"cc",28367.213,1,0.100,37639.000,0.200,5726.000,0.300,520.000,0.500,103.000,1.000,25.000,5.000,0
"05/02/07","19:05:45",42660.000,"cc",28289.479,1,0.100,36438.000,0.200,5573.000,0.300,515.000,0.500,107.000,1.000,27.000,5.000,0
"05/02/07","19:05:51",41824.000,"cc",28269.043,1,0.100,35836.000,0.200,5388.000,0.300,480.000,0.500,91.000,1.000,29.000,5.000,0
"05/02/07","19:05:57",41312.000,"cc",28365.379,1,0.100,35183.000,0.200,5486.000,0.300,500.000,0.500,113.000,1.000,30.000,5.000,0
"05/02/07","19:06:03",41080.000,"cc",28333.676,1,0.100,35064.000,0.200,5380.000,0.300,511.000,0.500,100.000,1.000,25.000,5.000,0
"05/02/07","19:06:09",40705.000,"cc",28303.871,1,0.100,34867.000,0.200,5244.000,0.300,468.000,0.500,95.000,1.000,31.000,5.000,0
"05/02/07","19:06:15",40728.000,"cc",28277.020,1,0.100,34830.000,0.200,5282.000,0.300,481.000,0.500,115.000,1.000,20.000,5.000,0
"05/02/07","19:06:21",40616.000,"cc",28314.928,1,0.100,34702.000,0.200,5365.000,0.300,439.000,0.500,88.000,1.000,22.000,5.000,0
"05/02/07","19:06:27",40558.000,"cc",28318.809,1,0.100,34663.000,0.200,5303.000,0.300,470.000,0.500,92.000,1.000,30.000,5.000,0
"05/02/07","19:06:33",40653.000,"cc",28315.818,1,0.100,34747.000,0.200,5282.000,0.300,507.000,0.500,95.000,1.000,22.000,5.000,0
"05/02/07","19:06:39",41178.000,"cc",28300.440,1,0.100,35142.000,0.200,5456.000,0.300,478.000,0.500,77.000,1.000,25.000,5.000,0
"05/02/07","19:06:45",41481.000,"cc",28318.461,1,0.100,35523.000,0.200,5321.000,0.300,511.000,0.500,91.000,1.000,35.000,5.000,0
"05/02/07","19:06:51",40790.000,"cc",28325.258,1,0.100,34872.000,0.200,5339.000,0.300,466.000,0.500,88.000,1.000,25.000,5.000,0
"05/02/07","19:06:57",40319.000,"cc",28322.506,1,0.100,34505.000,0.200,5263.000,0.300,429.000,0.500,91.000,1.000,31.000,5.000,0
"05/02/07","19:07:03",40351.000,"cc",28291.385,1,0.100,34661.000,0.200,5168.000,0.300,422.000,0.500,75.000,1.000,25.000,5.000,0
"05/02/07","19:07:09",38804.000,"cc",28330.279,1,0.100,33180.000,0.200,5092.000,0.300,447.000,0.500,67.000,1.000,18.000,5.000,0
"05/02/07","19:07:15",39299.000,"cc",28368.236,1,0.100,33709.000,0.200,5082.000,0.300,404.000,0.500,86.000,1.000,18.000,5.000,0
"05/02/07","19:07:21",39089.000,"cc",28367.125,1,0.100,33457.000,0.200,5085.000,0.300,439.000,0.500,82.000,1.000,26.000,5.000,0
"05/02/07","19:07:27",39042.000,"cc",28293.627,1,0.100,33394.000,0.200,5106.000,0.300,441.000,0.500,80.000,1.000,21.000,5.000,0
"05/02/07","19:07:33",38144.000,"cc",28360.580,1,0.100,32749.000,0.200,4912.000,0.300,405.000,0.500,55.000,1.000,23.000,5.000,0
"05/02/07","19:07:39",37971.000,"cc",28345.498,1,0.100,32528.000,0.200,4994.000,0.300,373.000,0.500,56.000,1.000,20.000,5.000,0
"05/02/07","19:07:45",37840.000,"cc",28272.643,1,0.100,32560.000,0.200,4808.000,0.300,403.000,0.500,54.000,1.000,15.000,5.000,0
"05/02/07","19:07:51",38292.000,"cc",28249.518,1,0.100,32847.000,0.200,4943.000,0.300,417.000,0.500,69.000,1.000,16.000,5.000,0
"05/02/07","19:07:57",37953.000,"cc",28276.449,1,0.100,32540.000,0.200,4942.000,0.300,386.000,0.500,68.000,1.000,17.000,5.000,0
"05/02/07","19:08:03",38355.000,"cc",28321.908,1,0.100,32863.000,0.200,5035.000,0.300,363.000,0.500,75.000,1.000,19.000,5.000,0
"05/02/07","19:08:09",38667.000,"cc",28324.811,1,0.100,33080.000,0.200,5078.000,0.300,425.000,0.500,72.000,1.000,12.000,5.000,0
"05/02/07","19:08:15",39366.000,"cc",28312.504,1,0.100,33701.000,0.200,5179.000,0.300,408.000,0.500,61.000,1.000,17.000,5.000,0
"05/02/07","19:08:21",39222.000,"cc",28335.707,1,0.100,33563.000,0.200,5183.000,0.300,397.000,0.500,66.000,1.000,13.000,5.000,0
"05/02/07","19:08:27",40723.000,"cc",28335.986,1,0.100,34825.000,0.200,5361.000,0.300,460.000,0.500,64.000,1.000,13.000,5.000,0
"05/02/07","19:08:33",41422.000,"cc",28359.850,1,0.100,35332.000,0.200,5610.000,0.300,409.000,0.500,57.000,1.000,14.000,5.000,0
"05/02/07","19:08:39",41139.000,"cc",28349.254,1,0.100,35268.000,0.200,5370.000,0.300,425.000,0.500,67.000,1.000,9.000,5.000,0
"05/02/07","19:08:45",41492.000,"cc",28282.315,1,0.100,35559.000,0.200,5412.000,0.300,452.000,0.500,61.000,1.000,8.000,5.000,0
"05/02/07","19:08:51",41543.000,"cc",28302.176,1,0.100,35383.000,0.200,5656.000,0.300,452.000,0.500,47.000,1.000,5.000,5.000,0
"05/02/07","19:08:57",42319.000,"cc",28351.053,1,0.100,36218.000,0.200,5576.000,0.300,447.000,0.500,63.000,1.000,15.000,5.000,0
"05/02/07","19:09:03",42294.000,"cc",28350.846,1,0.100,35947.000,0.200,5799.000,0.300,469.000,0.500,67.000,1.000,12.000,5.000,0
"05/02/07","19:09:09",42823.000,"cc",28290.281,1,0.100,36514.000,0.200,5743.000,0.300,505.000,0.500,50.000,1.000,11.000,5.000,0
"05/02/07","19:09:15",43667.000,"cc",28271.316,1,0.100,37136.000,0.200,5959.000,0.300,495.000,0.500,69.000,1.000,8.000,5.000,0
"05/02/07","19:09:21",43825.000,"cc",28309.522,1,0.100,37387.000,0.200,5907.000,0.300,454.000,0.500,71.000,1.000,6.000,5.000,0
"05/02/07","19:09:27",44220.000,"cc",28364.160,1,0.100,37733.000,0.200,5974.000,0.300,452.000,0.500,54.000,1.000,7.000,5.000,0
"05/02/07","19:09:33",44590.000,"cc",28318.404,1,0.100,37786.000,0.200,6216.000,0.300,500.000,0.500,77.000,1.000,11.000,5.000,0
"05/02/07","19:09:39",44666.000,"cc",28247.270,1,0.100,37957.000,0.200,6196.000,0.300,463.000,0.500,45.000,1.000,5.000,5.000,0
"05/02/07","19:09:45",45242.000,"cc",28316.773,1,0.100,38472.000,0.200,6231.000,0.300,468.000,0.500,62.000,1.000,9.000,5.000,0
"05/02/07","19:09:51",46063.000,"cc",28305.307,1,0.100,39174.000,0.200,6362.000,0.300,467.000,0.500,49.000,1.000,11.000,5.000,0
"05/02/07","19:09:57",46803.000,"cc",28298.453,1,0.100,39816.000,0.200,6396.000,0.300,521.000,0.500,65.000,1.000,5.000,5.000,0
"05/02/07","19:10:03",46820.000,"cc",28324.867,1,0.100,39858.000,0.200,6385.000,0.300,513.000,0.500,57.000,1.000,7.000,5.000,0
"05/02/07","19:10:09",47691.000,"cc",28366.488,1,0.100,40394.000,0.200,6702.000,0.300,531.000,0.500,56.000,1.000,8.000,5.000,0
"05/02/07","19:10:15",48573.000,"cc",28333.504,1,0.100,41183.000,0.200,6714.000,0.300,603.000,0.500,69.000,1.000,4.000,5.000,0
"05/02/07","19:10:21",48600.000,"cc",28313.656,1,0.100,41237.000,0.200,6775.000,0.300,520.000,0.500,62.000,1.000,6.000,5.000,0
"05/02/07","19:10:27",48123.000,"cc",28317.158,1,0.100,40832.000,0.200,6688.000,0.300,543.000,0.500,54.000,1.000,6.000,5.000,0
"05/02/07","19:10:33",48904.000,"cc",28307.164,1,0.100,41430.000,0.200,6895.000,0.300,510.000,0.500,60.000,1.000,9.000,5.000,0
"05/02/07","19:10:39",49201.000,"cc",28287.783,1,0.100,41724.000,0.200,6851.000,0.300,562.000,0.500,57.000,1.000,7.000,5.000,0
"05/02/07","19:10:45",49831.000,"cc",28316.621,1,0.100,42275.000,0.200,6914.000,0.300,550.000,0.500,74.000,1.000,18.000,5.000,0
"05/02/07","19:10:51",50089.000,"cc",28287.928,1,0.100,42180.000,0.200,7170.000,0.300,600.000,0.500,73.000,1.000,66.000,5.000,0
"05/02/07","19:10:57",50878.000,"cc",28299.830,1,0.100,43105.000,0.200,7077.000,0.300,586.000,0.500,83.000,1.000,26.000,5.000,1.000
"05/02/07","19:11:03",50659.000,"cc",28359.248,1,0.100,42810.000,0.200,7150.000,0.300,607.000,0.500,68.000,1.000,24.000,5.000,0
"05/02/07","19:11:09",51480.000,"cc",28347.777,1,0.100,43514.000,0.200,7297.000,0.300,581.000,0.500,72.000,1.000,16.000,5.000,0
"05/02/07","19:11:15",52136.000,"cc",28312.117,1,0.100,43935.000,0.200,7520.000,0.300,606.000,0.500,56.000,1.000,19.000,5.000,0
"05/02/07","19:11:21",52285.000,"cc",28215.287,1,0.100,44150.000,0.200,7481.000,0.300,603.000,0.500,41.000,1.000,10.000,5.000,0
"05/02/07","19:11:27",53330.000,"cc",28329.678,1,0.100,45080.000,0.200,7565.000,0.300,620.000,0.500,56.000,1.000,9.000,5.000,0
"05/02/07","19:11:33",53721.000,"cc",28348.426,1,0.100,45081.000,0.200,7962.000,0.300,614.000,0.500,58.000,1.000,6.000,5.000,0
"05/02/07","19:11:39",54092.000,"cc",28353.682,1,0.100,45604.000,0.200,7815.000,0.300,607.000,0.500,57.000,1.000,9.000,5.000,0
"05/02/07","19:11:45",55490.000,"cc",28289.697,1,0.100,46649.000,0.200,8184.000,0.300,583.000,0.500,63.000,1.000,11.000,5.000,0
"05/02/07","19:11:51",56323.000,"cc",28315.232,1,0.100,47268.000,0.200,8253.000,0.300,714.000,0.500,79.000,1.000,9.000,5.000,0
"05/02/07","19:11:57",56959.000,"cc",28346.090,1,0.100,47762.000,0.200,8379.000,0.300,745.000,0.500,67.000,1.000,6.000,5.000,0
"05/02/07","19:12:03",58771.000,"cc",28323.912,1,0.100,49197.000,0.200,8721.000,0.300,760.000,0.500,77.000,1.000,16.000,5.000,0
"05/02/07","19:12:09",59826.000,"cc",28334.451,1,0.100,50150.000,0.200,8830.000,0.300,747.000,0.500,87.000,1.000,12.000,5.000,0
"05/02/07","19:12:15",60218.000,"cc",28351.139,1,0.100,50319.000,0.200,9061.000,0.300,755.000,0.500,71.000,1.000,12.000,5.000,0
"05/02/07","19:12:21",60322.000,"cc",28273.389,1,0.100,50416.000,0.200,9055.000,0.300,766.000,0.500,77.000,1.000,8.000,5.000,0
"05/02/07","19:12:27",62317.000,"cc",28349.645,1,0.100,51945.000,0.200,9507.000,0.300,799.000,0.500,57.000,1.000,9.000,5.000,0
"05/02/07","19:12:33",62201.000,"cc",28344.676,1,0.100,52008.000,0.200,9341.000,0.300,778.000,0.500,61.000,1.000,13.000,5.000,0
"05/02/07","19:12:39",63813.000,"cc",28290.992,1,0.100,53314.000,0.200,9643.000,0.300,772.000,0.500,77.000,1.000,7.000,5.000,0
"05/02/07","19:12:45",63949.000,"cc",28292.074,1,0.100,53483.000,0.200,9544.000,0.300,848.000,0.500,64.000,1.000,10.000,5.000,0
"05/02/07","19:12:51",65735.000,"cc",28308.494,1,0.100,54836.000,0.200,9954.000,0.300,880.000,0.500,60.000,1.000,5.000,5.000,0
"05/02/07","19:12:57",64798.000,"cc",28339.477,1,0.100,53866.000,0.200,9964.000,0.300,892.000,0.500,71.000,1.000,5.000,5.000,0
"05/02/07","19:13:03",65974.000,"cc",28309.840,1,0.100,54845.000,0.200,10107.000,0.300,929.000,0.500,81.000,1.000,12.000,5.000,0
"05/02/07","19:13:09",67395.000,"cc",28260.463,1,0.100,55871.000,0.200,10530.000,0.300,888.000,0.500,89.000,1.000,17.000,5.000,0
"05/02/07","19:13:15",68599.000,"cc",28341.354,1,0.100,56874.000,0.200,10688.000,0.300,948.000,0.500,82.000,1.000,7.000,5.000,0
"05/02/07","19:13:21",68100.000,"cc",28327.117,1,0.100,56521.000,0.200,10539.000,0.300,956.000,0.500,75.000,1.000,9.000,5.000,0
"05/02/07","19:13:27",69402.000,"cc",28297.535,1,0.100,57437.000,0.200,10860.000,0.300,999.000,0.500,96.000,1.000,10.000,5.000,0
"05/02/07","19:13:33",72080.000,"cc",28376.147,1,0.100,59705.000,0.200,11236.000,0.300,1043.000,0.500,84.000,1.000,12.000,5.000,0
"05/02/07","19:13:39",72630.000,"cc",28282.779,1,0.100,60109.000,0.200,11354.000,0.300,1049.000,0.500,103.000,1.000,15.000,5.000,0
"05/02/07","19:13:45",73899.000,"cc",28295.797,1,0.100,61176.000,0.200,11614.000,0.300,992.000,0.500,102.000,1.000,15.000,5.000,0
"05/02/07","19:13:51",74314.000,"cc",28319.586,1,0.100,61615.000,0.200,11587.000,0.300,1007.000,0.500,90.000,1.000,15.000,5.000,0
"05/02/07","19:13:57",75007.000,"cc",28335.766,1,0.100,62016.000,0.200,11759.000,0.300,1099.000,0.500,117.000,1.000,15.000,5.000,1.000
"05/02/07","19:14:03",75003.000,"cc",28338.182,1,0.100,61960.000,0.200,11784.000,0.300,1149.000,0.500,100.000,1.000,10.000,5.000,0
"05/02/07","19:14:09",75030.000,"cc",28318.443,1,0.100,61955.000,0.200,11860.000,0.300,1112.000,0.500,90.000,1.000,13.000,5.000,0
"05/02/07","19:14:15",75366.000,"cc",28317.455,1,0.100,62350.000,0.200,11831.000,0.300,1074.000,0.500,99.000,1.000,12.000,5.000,0
"05/02/07","19:14:21",76159.000,"cc",28357.738,1,0.100,62983.000,0.200,12003.000,0.300,1068.000,0.500,92.000,1.000,13.000,5.000,0
"05/02/07","19:14:27",76183.000,"cc",28271.563,1,0.100,62925.000,0.200,12046.000,0.300,1100.000,0.500,103.000,1.000,9.000,5.000,0
"05/02/07","19:14:33",76896.000,"cc",28343.082,1,0.100,63402.000,0.200,12246.000,0.300,1155.000,0.500,84.000,1.000,9.000,5.000,0
"05/02/07","19:14:39",77325.000,"cc",28304.498,1,0.100,63774.000,0.200,12217.000,0.300,1223.000,0.500,101.000,1.000,10.000,5.000,0
"05/02/07","19:14:45",77007.000,"cc",28297.088,1,0.100,63604.000,0.200,12113.000,0.300,1173.000,0.500,106.000,1.000,11.000,5.000,0
"05/02/07","19:14:51",77057.000,"cc",28319.863,1,0.100,63593.000,0.200,12210.000,0.300,1131.000,0.500,110.000,1.000,13.000,5.000,0
"05/02/07","19:14:57",77201.000,"cc",28355.205,1,0.100,63791.000,0.200,12148.000,0.300,1151.000,0.500,106.000,1.000,5.000,5.000,0
"05/02/07","19:15:03",78162.000,"cc",28329.707,1,0.100,64334.000,0.200,12600.000,0.300,1108.000,0.500,108.000,1.000,12.000,5.000,0
"05/02/07","19:15:09",78392.000,"cc",28301.260,1,0.100,64825.000,0.200,12328.000,0.300,1132.000,0.500,91.000,1.000,16.000,5.000,0
"05/02/07","19:15:15",77413.000,"cc",28290.488,1,0.100,63664.000,0.200,12480.000,0.300,1170.000,0.500,89.000,1.000,10.000,5.000,0
"05/02/07","19:15:21",78760.000,"cc",28345.115,1,0.100,64921.000,0.200,12598.000,0.300,1140.000,0.500,94.000,1.000,7.000,5.000,0
"05/02/07","19:15:27",78730.000,"cc",28341.416,1,0.100,65050.000,0.200,12392.000,0.300,1189.000,0.500,90.000,1.000,9.000,5.000,0
"05/02/07","19:15:33",78625.000,"cc",28294.711,1,0.100,64817.000,0.200,12554.000,0.300,1169.000,0.500,77.000,1.000,8.000,5.000,0
"05/02/07","19:15:39",78267.000,"cc",28302.211,1,0.100,64566.000,0.200,12414.000,0.300,1182.000,0.500,96.000,1.000,9.000,5.000,0
"05/02/07","19:15:45",78570.000,"cc",28319.180,1,0.100,64782.000,0.200,12516.000,0.300,1159.000,0.500,97.000,1.000,16.000,5.000,0
"05/02/07","19:15:51",78514.000,"cc",28378.971,1,0.100,64757.000,0.200,12443.000,0.300,1214.000,0.500,90.000,1.000,10.000,5.000,0
"05/02/07","19:15:57",78079.000,"cc",28303.522,1,0.100,64407.000,0.200,12383.000,0.300,1192.000,0.500,89.000,1.000,8.000,5.000,0
"05/02/07","19:16:03",78244.000,"cc",28318.572,1,0.100,64560.000,0.200,12417.000,0.300,1168.000,0.500,89.000,1.000,10.000,5.000,0
"05/02/07","19:16:09",77852.000,"cc",28249.477,1,0.100,64164.000,0.200,12466.000,0.300,1109.000,0.500,102.000,1.000,11.000,5.000,0
"05/02/07","19:16:15",78264.000,"cc",28334.906,1,0.100,64733.000,0.200,12246.000,0.300,1185.000,0.500,89.000,1.000,11.000,5.000,0
"05/02/07","19:16:21",77484.000,"cc",28371.371,1,0.100,63799.000,0.200,12338.000,0.300,1241.000,0.500,94.000,1.000,12.000,5.000,0
"05/02/07","19:16:27",77024.000,"cc",28293.789,1,0.100,63447.000,0.200,12246.000,0.300,1226.000,0.500,93.000,1.000,12.000,5.000,0
"05/02/07","19:16:33",76960.000,"cc",28313.002,1,0.100,63404.000,0.200,12242.000,0.300,1213.000,0.500,94.000,1.000,7.000,5.000,0
"05/02/07","19:16:39",76356.000,"cc",28324.801,1,0.100,62712.000,0.200,12310.000,0.300,1233.000,0.500,90.000,1.000,11.000,5.000,0
"05/02/07","19:16:45",76003.000,"cc",28318.053,1,0.100,62828.000,0.200,11929.000,0.300,1163.000,0.500,76.000,1.000,7.000,5.000,0
"05/02/07","19:16:51",75916.000,"cc",28312.684,1,0.100,62458.000,0.200,12181.000,0.300,1184.000,0.500,81.000,1.000,12.000,5.000,0
"05/02/07","19:16:57",75482.000,"cc",28365.229,1,0.100,62406.000,0.200,11898.000,0.300,1083.000,0.500,87.000,1.000,8.000,5.000,0
"05/02/07","19:17:03",75396.000,"cc",28327.236,1,0.100,62150.000,0.200,11999.000,0.300,1152.000,0.500,90.000,1.000,5.000,5.000,0
"05/02/07","19:17:09",74735.000,"cc",28270.492,1,0.100,61447.000,0.200,12032.000,0.300,1152.000,0.500,94.000,1.000,10.000,5.000,0
"05/02/07","19:17:15",74844.000,"cc",28295.420,1,0.100,61675.000,0.200,11959.000,0.300,1118.000,0.500,88.000,1.000,4.000,5.000,0
"05/02/07","19:17:21",75098.000,"cc",28327.889,1,0.100,61870.000,0.200,11948.000,0.300,1181.000,0.500,89.000,1.000,10.000,5.000,0
"05/02/07","19:17:27",74417.000,"cc",28300.816,1,0.100,61472.000,0.200,11686.000,0.300,1172.000,0.500,82.000,1.000,5.000,5.000,0